TAM4787 SBBR-SBPJ

Flight info

Callsign TAM4787
Flight time 1h 0m
Altitude 39000
Route ILKUS UZ26 LIBEC
Aircraft A319/M-SDE3FGHIRWY/LB1

Departure

Time 2026-04-20 17:03
Airport Presidente Juscelino Kubitschek International Airport (SBBR)

Arrival

Time 2026-04-20 18:03
Airport Brigadeiro Lysias Rodrigues Airport (SBPJ)
Time Latitude Longitude Altitude Speed Heading
2026-04-20 17:01 -15.88022 -47.93990 3485 ft 5 kts 170°
2026-04-20 17:02 -15.88066 -47.93959 3486 ft 12 kts 110°
2026-04-20 17:02 -15.88059 -47.93893 3484 ft 6 kts 86°
2026-04-20 17:02 -15.88054 -47.93807 3483 ft 29 kts 86°
2026-04-20 17:02 -15.88025 -47.93356 3478 ft 94 kts 86°
2026-04-20 17:03 -15.87969 -47.92482 3477 ft 146 kts 86°
2026-04-20 17:03 -15.87891 -47.91363 3895 ft 155 kts 86°
2026-04-20 17:03 -15.87803 -47.90234 4452 ft 158 kts 87°
2026-04-20 17:03 -15.87709 -47.89097 4885 ft 167 kts 85°
2026-04-20 17:04 -15.87617 -47.87817 5065 ft 189 kts 87°
2026-04-20 17:04 -15.87534 -47.86373 5221 ft 211 kts 87°
2026-04-20 17:04 -15.87442 -47.84752 5396 ft 238 kts 87°
2026-04-20 17:04 -15.87337 -47.82944 5744 ft 262 kts 86°
2026-04-20 17:05 -15.87220 -47.81032 6313 ft 273 kts 87°
2026-04-20 17:05 -15.87033 -47.79057 7142 ft 278 kts 78°
2026-04-20 17:05 -15.86254 -47.77197 7987 ft 285 kts 56°
2026-04-20 17:05 -15.84815 -47.75766 8814 ft 291 kts 32°
2026-04-20 17:06 -15.82909 -47.75016 9659 ft 297 kts
2026-04-20 17:06 -15.80814 -47.75093 10228 ft 313 kts 346°
2026-04-20 17:06 -15.78738 -47.75937 10545 ft 333 kts 336°
2026-04-20 17:06 -15.76591 -47.76925 11188 ft 339 kts 336°
2026-04-20 17:07 -15.74418 -47.77925 11915 ft 343 kts 336°
2026-04-20 17:07 -15.72249 -47.78915 12611 ft 346 kts 336°
2026-04-20 17:07 -15.70027 -47.79921 13337 ft 349 kts 336°
2026-04-20 17:07 -15.67783 -47.80931 14011 ft 352 kts 336°
2026-04-20 17:08 -15.65534 -47.81998 14639 ft 357 kts 335°
2026-04-20 17:08 -15.63311 -47.83127 15180 ft 361 kts 333°
2026-04-20 17:08 -15.61052 -47.84316 15712 ft 367 kts 333°
2026-04-20 17:08 -15.58755 -47.85539 16224 ft 372 kts 333°
2026-04-20 17:09 -15.56432 -47.86774 16791 ft 376 kts 333°
2026-04-20 17:09 -15.54079 -47.88014 17315 ft 380 kts 333°
2026-04-20 17:09 -15.51732 -47.89235 17839 ft 384 kts 333°
2026-04-20 17:09 -15.49327 -47.90476 18358 ft 388 kts 333°
2026-04-20 17:10 -15.46893 -47.91730 18813 ft 391 kts 333°
2026-04-20 17:10 -15.44444 -47.92994 19291 ft 394 kts 333°
2026-04-20 17:10 -15.41975 -47.94272 19786 ft 397 kts 333°
2026-04-20 17:10 -15.39491 -47.95558 20282 ft 400 kts 333°
2026-04-20 17:11 -15.37018 -47.96834 20777 ft 403 kts 333°
2026-04-20 17:11 -15.34497 -47.98134 21261 ft 405 kts 333°
2026-04-20 17:11 -15.31964 -47.99441 21755 ft 408 kts 332°
2026-04-20 17:11 -15.29411 -48.00764 22233 ft 411 kts 332°
2026-04-20 17:12 -15.27712 -48.01644 22553 ft 413 kts 332°
2026-04-20 17:12 -15.25125 -48.02981 23034 ft 416 kts 332°
2026-04-20 17:12 -15.21673 -48.04760 23663 ft 419 kts 332°
2026-04-20 17:12 -15.19052 -48.06112 24064 ft 422 kts 332°
2026-04-20 17:13 -15.17271 -48.07032 24321 ft 424 kts 332°
2026-04-20 17:13 -15.14653 -48.08385 24697 ft 427 kts 332°
2026-04-20 17:13 -15.11981 -48.09766 25078 ft 430 kts 331°
2026-04-20 17:13 -15.09293 -48.11151 25438 ft 433 kts 331°
2026-04-20 17:14 -15.06579 -48.12547 25802 ft 436 kts 331°
2026-04-20 17:14 -15.03878 -48.13935 26159 ft 439 kts 331°
2026-04-20 17:14 -15.01131 -48.15349 26510 ft 441 kts 331°
2026-04-20 17:14 -14.98370 -48.16768 26863 ft 444 kts 331°
2026-04-20 17:15 -14.95592 -48.18192 27208 ft 447 kts 332°
2026-04-20 17:15 -14.92657 -48.19340 27542 ft 454 kts 342°
2026-04-20 17:15 -14.89531 -48.19947 27866 ft 460 kts 353°
2026-04-20 17:15 -14.86346 -48.20072 28182 ft 464 kts 357°
2026-04-20 17:16 -14.83102 -48.20149 28495 ft 467 kts 356°
2026-04-20 17:16 -14.79844 -48.20231 28804 ft 470 kts 356°
2026-04-20 17:16 -14.76558 -48.20317 29123 ft 473 kts 356°
2026-04-20 17:16 -14.73258 -48.20409 29438 ft 476 kts 356°
2026-04-20 17:17 -14.69934 -48.20503 29731 ft 479 kts 356°
2026-04-20 17:17 -14.66587 -48.20600 30033 ft 482 kts 356°
2026-04-20 17:17 -14.63276 -48.20696 30294 ft 484 kts 356°
2026-04-20 17:17 -14.59900 -48.20791 30579 ft 486 kts 356°
2026-04-20 17:18 -14.56510 -48.20885 30858 ft 488 kts 356°
2026-04-20 17:18 -14.53106 -48.20980 31140 ft 490 kts 356°
2026-04-20 17:18 -14.49690 -48.21079 31417 ft 492 kts 355°
2026-04-20 17:18 -14.46268 -48.21176 31715 ft 492 kts 356°
2026-04-20 17:19 -14.42838 -48.21270 32127 ft 491 kts 356°
2026-04-20 17:19 -14.39426 -48.21364 32544 ft 489 kts 355°
2026-04-20 17:19 -14.36024 -48.21458 32958 ft 488 kts 355°
2026-04-20 17:19 -14.32634 -48.21552 33380 ft 487 kts 355°
2026-04-20 17:20 -14.29252 -48.21647 33811 ft 485 kts 355°
2026-04-20 17:20 -14.25871 -48.21743 34187 ft 484 kts 355°
2026-04-20 17:20 -14.22547 -48.21840 34545 ft 483 kts 355°
2026-04-20 17:20 -14.19182 -48.21937 34910 ft 482 kts 355°
2026-04-20 17:21 -14.15834 -48.22029 35277 ft 480 kts 355°
2026-04-20 17:21 -14.12484 -48.22123 35639 ft 479 kts 355°
2026-04-20 17:21 -14.09149 -48.22217 35996 ft 478 kts 355°
2026-04-20 17:21 -14.05825 -48.22310 36349 ft 477 kts 355°
2026-04-20 17:22 -14.02548 -48.22398 36687 ft 475 kts 354°
2026-04-20 17:22 -13.99238 -48.22488 37020 ft 474 kts 355°
2026-04-20 17:22 -13.95933 -48.22575 37368 ft 473 kts 355°
2026-04-20 17:22 -13.92649 -48.22661 37729 ft 471 kts 355°
2026-04-20 17:23 -13.89378 -48.22747 38075 ft 469 kts 355°
2026-04-20 17:23 -13.86113 -48.22834 38390 ft 468 kts 355°
2026-04-20 17:23 -13.82891 -48.22923 38665 ft 468 kts 355°
2026-04-20 17:23 -13.79643 -48.23018 38861 ft 467 kts 354°
2026-04-20 17:24 -13.76382 -48.23114 38923 ft 468 kts 354°
2026-04-20 17:24 -13.69839 -48.23302 38931 ft 469 kts 355°
2026-04-20 17:25 -13.63349 -48.23483 38926 ft 469 kts 355°
2026-04-20 17:25 -13.56805 -48.23665 38925 ft 469 kts 355°
2026-04-20 17:26 -13.50274 -48.23843 38919 ft 469 kts 355°
2026-04-20 17:26 -13.43783 -48.24019 38921 ft 469 kts 355°
2026-04-20 17:27 -13.37254 -48.24199 38922 ft 469 kts 355°
2026-04-20 17:27 -13.30730 -48.24379 38925 ft 469 kts 355°
2026-04-20 17:28 -13.24200 -48.24557 38923 ft 468 kts 355°
2026-04-20 17:28 -13.17707 -48.24740 38924 ft 468 kts 355°
2026-04-20 17:29 -13.11183 -48.24922 38924 ft 468 kts 355°
2026-04-20 17:29 -13.04665 -48.25096 38925 ft 468 kts 355°
2026-04-20 17:30 -12.98153 -48.25278 38927 ft 468 kts 355°
2026-04-20 17:30 -12.91675 -48.25460 38926 ft 467 kts 355°
2026-04-20 17:31 -12.85171 -48.25634 38924 ft 467 kts 356°
2026-04-20 17:31 -12.78661 -48.25810 38925 ft 467 kts 355°
2026-04-20 17:32 -12.72188 -48.25994 38925 ft 467 kts 356°
2026-04-20 17:32 -12.65680 -48.26167 38922 ft 467 kts 356°
2026-04-20 17:33 -12.59220 -48.26333 38917 ft 466 kts 356°
2026-04-20 17:33 -12.52719 -48.26519 38919 ft 466 kts 356°
2026-04-20 17:34 -12.46222 -48.26707 38925 ft 466 kts 356°
2026-04-20 17:34 -12.39782 -48.26886 38925 ft 466 kts 356°
2026-04-20 17:35 -12.33278 -48.27065 38920 ft 466 kts 356°
2026-04-20 17:35 -12.26805 -48.27239 38931 ft 464 kts 356°
2026-04-20 17:36 -12.20380 -48.27414 38937 ft 462 kts 356°
2026-04-20 17:36 -12.13952 -48.27586 38909 ft 461 kts 356°
2026-04-20 17:36 -12.10730 -48.27674 37894 ft 468 kts 356°
2026-04-20 17:37 -12.07427 -48.27763 36655 ft 476 kts 356°
2026-04-20 17:37 -12.04103 -48.27851 35604 ft 479 kts 357°
2026-04-20 17:37 -12.00807 -48.27939 34520 ft 482 kts 357°
2026-04-20 17:37 -11.97440 -48.28029 33296 ft 486 kts 357°
2026-04-20 17:38 -11.94044 -48.28121 31945 ft 490 kts 358°
2026-04-20 17:38 -11.90612 -48.28214 30812 ft 495 kts 358°
2026-04-20 17:38 -11.87207 -48.28306 30615 ft 482 kts 358°
2026-04-20 17:38 -11.83899 -48.28398 30494 ft 468 kts 358°
2026-04-20 17:39 -11.80687 -48.28488 30378 ft 455 kts 358°
2026-04-20 17:39 -11.77553 -48.28574 30255 ft 443 kts 358°
2026-04-20 17:39 -11.74492 -48.28656 30023 ft 436 kts 358°
2026-04-20 17:39 -11.71477 -48.28735 29661 ft 432 kts 358°
2026-04-20 17:40 -11.68519 -48.28814 29274 ft 428 kts 358°
2026-04-20 17:40 -11.65544 -48.28897 28893 ft 424 kts 358°
2026-04-20 17:40 -11.62601 -48.28979 28521 ft 421 kts 358°
2026-04-20 17:40 -11.59684 -48.29059 28167 ft 418 kts 358°
2026-04-20 17:41 -11.56781 -48.29140 27815 ft 415 kts 358°
2026-04-20 17:41 -11.53903 -48.29218 27445 ft 412 kts 358°
2026-04-20 17:41 -11.51082 -48.29296 27089 ft 408 kts 358°
2026-04-20 17:41 -11.48248 -48.29374 26729 ft 405 kts 358°
2026-04-20 17:42 -11.45434 -48.29448 26368 ft 402 kts 359°
2026-04-20 17:42 -11.42643 -48.29521 26006 ft 399 kts 359°
2026-04-20 17:42 -11.39877 -48.29594 25644 ft 396 kts 359°
2026-04-20 17:42 -11.37129 -48.29669 25282 ft 393 kts 359°
2026-04-20 17:43 -11.34402 -48.29746 24920 ft 389 kts 359°
2026-04-20 17:43 -11.31726 -48.29822 24558 ft 386 kts 359°
2026-04-20 17:43 -11.29049 -48.29942 24194 ft 383 kts 353°
2026-04-20 17:43 -11.26431 -48.30403 23830 ft 380 kts 349°
2026-04-20 17:44 -11.23841 -48.30902 23494 ft 376 kts 349°
2026-04-20 17:44 -11.21279 -48.31390 23071 ft 372 kts 349°
2026-04-20 17:44 -11.18745 -48.31870 22410 ft 368 kts 349°
2026-04-20 17:44 -11.16232 -48.32346 21714 ft 364 kts 349°
2026-04-20 17:45 -11.13750 -48.32818 21070 ft 360 kts 349°
2026-04-20 17:45 -11.11331 -48.33280 20451 ft 355 kts 349°
2026-04-20 17:45 -11.08914 -48.33738 19832 ft 352 kts 349°
2026-04-20 17:45 -11.06518 -48.34190 19229 ft 348 kts 349°
2026-04-20 17:46 -11.04147 -48.34642 18654 ft 343 kts 349°
2026-04-20 17:46 -11.01836 -48.35084 18085 ft 339 kts 349°
2026-04-20 17:46 -10.99527 -48.35523 17431 ft 335 kts 349°
2026-04-20 17:46 -10.97241 -48.35955 16786 ft 332 kts 349°
2026-04-20 17:47 -10.94983 -48.36382 16193 ft 329 kts 349°
2026-04-20 17:47 -10.92733 -48.36809 15820 ft 327 kts 349°
2026-04-20 17:47 -10.90502 -48.37231 15464 ft 324 kts 349°
2026-04-20 17:47 -10.88295 -48.37649 15107 ft 321 kts 349°
2026-04-20 17:48 -10.86127 -48.38061 14755 ft 319 kts 349°
2026-04-20 17:48 -10.83949 -48.38475 14405 ft 317 kts 349°
2026-04-20 17:48 -10.81778 -48.38889 14061 ft 315 kts 349°
2026-04-20 17:48 -10.79623 -48.39300 13722 ft 313 kts 349°
2026-04-20 17:49 -10.77516 -48.39703 13351 ft 311 kts 350°
2026-04-20 17:49 -10.75393 -48.40108 12951 ft 309 kts 350°
2026-04-20 17:49 -10.73278 -48.40510 12565 ft 308 kts 350°
2026-04-20 17:49 -10.71171 -48.40911 12176 ft 307 kts 350°
2026-04-20 17:50 -10.69070 -48.41307 11800 ft 306 kts 351°
2026-04-20 17:50 -10.67007 -48.41696 11438 ft 304 kts 351°
2026-04-20 17:50 -10.64928 -48.42090 11069 ft 303 kts 351°
2026-04-20 17:50 -10.62856 -48.42482 10712 ft 302 kts 350°
2026-04-20 17:51 -10.60792 -48.42873 10341 ft 301 kts 351°
2026-04-20 17:51 -10.58734 -48.43263 9988 ft 300 kts 350°
2026-04-20 17:51 -10.56686 -48.43651 9643 ft 298 kts 350°
2026-04-20 17:51 -10.54648 -48.44036 9321 ft 296 kts 351°
2026-04-20 17:52 -10.52651 -48.44413 8969 ft 294 kts 351°
2026-04-20 17:52 -10.50639 -48.44794 8617 ft 292 kts 352°
2026-04-20 17:52 -10.48642 -48.45173 8266 ft 291 kts 351°
2026-04-20 17:52 -10.46663 -48.45549 8049 ft 285 kts 351°
2026-04-20 17:53 -10.44739 -48.45914 7879 ft 278 kts 351°
2026-04-20 17:53 -10.42852 -48.46271 7647 ft 275 kts 351°
2026-04-20 17:53 -10.41003 -48.46619 7432 ft 270 kts 352°
2026-04-20 17:53 -10.39180 -48.46962 7314 ft 262 kts 352°
2026-04-20 17:54 -10.37412 -48.47296 7156 ft 256 kts 352°
2026-04-20 17:54 -10.35669 -48.47628 6900 ft 254 kts 352°
2026-04-20 17:54 -10.33937 -48.47956 6636 ft 253 kts 352°
2026-04-20 17:54 -10.32213 -48.48284 6371 ft 251 kts 352°
2026-04-20 17:55 -10.30497 -48.48610 6115 ft 249 kts 352°
2026-04-20 17:55 -10.28842 -48.48923 5990 ft 240 kts 352°
2026-04-20 17:55 -10.27232 -48.49227 5865 ft 231 kts 352°
2026-04-20 17:55 -10.25666 -48.49524 5676 ft 225 kts 352°
2026-04-20 17:56 -10.24158 -48.49807 5556 ft 215 kts 353°
2026-04-20 17:56 -10.22755 -48.49658 5416 ft 197 kts 30°
2026-04-20 17:56 -10.21834 -48.48752 5271 ft 180 kts 65°
2026-04-20 17:56 -10.21618 -48.47546 5027 ft 174 kts 98°
2026-04-20 17:57 -10.21870 -48.46777 4813 ft 174 kts 120°
2026-04-20 17:57 -10.22769 -48.45455 4475 ft 170 kts 127°
2026-04-20 17:57 -10.23774 -48.44854 4117 ft 176 kts 168°
2026-04-20 17:57 -10.24972 -48.45042 3811 ft 179 kts 206°
2026-04-20 17:58 -10.25828 -48.45950 3609 ft 183 kts 244°
2026-04-20 17:58 -10.26030 -48.46791 3477 ft 183 kts 267°
2026-04-20 17:58 -10.25630 -48.47983 3280 ft 184 kts 310°
2026-04-20 17:58 -10.24595 -48.48703 3151 ft 182 kts 343°
2026-04-20 17:59 -10.23348 -48.48732 3046 ft 180 kts 17°
2026-04-20 17:59 -10.22306 -48.48068 2924 ft 178 kts 51°
2026-04-20 17:59 -10.21787 -48.46960 2814 ft 175 kts 83°
2026-04-20 17:59 -10.21924 -48.45755 2701 ft 172 kts 114°
2026-04-20 18:00 -10.22604 -48.44848 2594 ft 154 kts 140°
2026-04-20 18:00 -10.23378 -48.44166 2501 ft 141 kts 140°
2026-04-20 18:00 -10.24054 -48.43477 2392 ft 138 kts 125°
2026-04-20 18:00 -10.24568 -48.42665 2213 ft 135 kts 126°
2026-04-20 18:01 -10.25086 -48.41875 2019 ft 134 kts 125°
2026-04-20 18:01 -10.25601 -48.41094 1840 ft 133 kts 125°
2026-04-20 18:01 -10.26115 -48.40317 1660 ft 132 kts 126°
2026-04-20 18:01 -10.26626 -48.39537 1448 ft 133 kts 126°
2026-04-20 18:02 -10.27127 -48.38750 1245 ft 134 kts 125°
2026-04-20 18:02 -10.27652 -48.37960 1031 ft 135 kts 125°
2026-04-20 18:02 -10.28183 -48.37167 894 ft 136 kts 124°
2026-04-20 18:02 -10.28709 -48.36376 744 ft 129 kts 123°
2026-04-20 18:03 -10.29128 -48.35741 752 ft 86 kts 123°
2026-04-20 18:03 -10.29380 -48.35360 764 ft 55 kts 123°
2026-04-20 18:03 -10.29483 -48.35218 768 ft 14 kts 138°
2026-04-20 18:03 -10.29485 -48.35200 768 ft 5 kts 297°
2026-04-20 18:04 -10.29459 -48.35239 768 ft 9 kts 306°
2026-04-20 18:04 -10.29417 -48.35300 766 ft 13 kts 304°
2026-04-20 18:04 -10.29362 -48.35387 763 ft 17 kts 303°
2026-04-20 18:04 -10.29306 -48.35470 758 ft 13 kts 304°
2026-04-20 18:05 -10.29433 -48.35604 758 ft 17 kts 213°
2026-04-20 18:05 -10.29455 -48.35668 756 ft 12 kts 305°
2026-04-20 18:05 -10.29425 -48.35742 756 ft 7 kts 256°
2026-04-20 18:06 -10.29438 -48.35756 757 ft 2 kts 214°
2026-04-20 18:06 -10.29456 -48.35768 754 ft 4 kts 213°
2026-04-20 18:06 -10.29465 -48.35774 755 ft 0 kts 212°